[[{"header":{"parameterUnit":"m.s-1","parameterCategory":2,"la1":30.2991,"la2":30.254,"lo1":-89.0895,"lo2":-89.0444,"dy":0.0017,"dx":0.0017,"nx":28,"ny":28,"refTime":"2023-08-12T21:00:00:Z","depth":"0","parameterNumber":2,"parameterNumberName":"U-component_of_CURRENTS"},"data":[0,0,0,0,0,0,0,0,0,0,0,0,0,0,0,0,0,0,0,0,0,0,0,0,0,0,0,0,0,0,0,0,0,0,0,0,0,0,0,0,0,0,0,0,0,0,0,0,0,0,0,0,0,0,0,0,0,0,0.4525,0.4526,0,0.461,0.4611,0.4612,0.4499,0.4496,0.4492,0.4488,0.4415,0.4416,0.4418,0,0,0,0,0,0,0,0,0,0,0,0,0,0.4198,0.4205,0.4525,0.4526,0.4528,0.461,0.4611,0.4612,0.45,0.4495,0.4491,0.4487,0.4414,0.4416,0.4418,0,0,0,0,0,0,0,0,0,0,0,0,0,0.4314,0.4207,0.4525,0.4485,0.4482,0.461,0.4611,0.4612,0.4501,0.4495,0.449,0.4485,0.4414,0.4416,0.4418,0.4543,0,0,0.4425,0.4426,0,0,0,0,0,0,0,0,0.4308,0.4326,0.4489,0.4488,0.4485,0.4542,0.4469,0.4583,0.4502,0.449,0.4488,0.4482,0.4449,0.4449,0.4474,0.454,0.4537,0.4425,0.4427,0.4428,0.4428,0,0,0,0,0,0,0,0.43,0.4321,0.4555,0.4491,0.4489,0.444,0.445,0.449,0.4494,0.449,0.4483,0.4501,0.4446,0.4472,0.4471,0.4536,0.4425,0.4427,0.4429,0.443,0.4729,0.4736,0,0,0,0,0,0,0.4309,0.4316,0.4552,0.4558,0.4385,0.4451,0.4462,0.4526,0.4497,0.4489,0.4506,0.4496,0.4471,0.4468,0.4467,0.4574,0.4428,0.443,0.4431,0.4723,0.4731,0.4738,0,0,0,0,0,0,0.4302,0.4331,0.4549,0.4437,0.4461,0.4463,0.4535,0.4531,0.4553,0.4511,0.4498,0.4531,0.4466,0.4464,0.4523,0.457,0.4431,0.4433,0.4715,0.4725,0.4734,0.4811,0,0,0,0,0,0,0.4294,0.433,0.4393,0.444,0.4469,0.4656,0.4541,0.4537,0.4575,0.4562,0.453,0.4517,0.4462,0.452,0.4525,0.4571,0.4435,0.4707,0.472,0.4731,0.48,0.4822,0.4841,0,0,0,0,0,0.4282,0.4396,0.4397,0.4426,0.4554,0.4662,0.4674,0.4648,0.4582,0.4638,0.4601,0.4518,0.4602,0.4528,0.4532,0.4579,0.4701,0.4716,0.473,0.4791,0.4818,0.4841,0,0,0,0,0,0,0.4297,0.4398,0.4398,0.454,0.4608,0.4644,0.4699,0.4679,0.4701,0.467,0.4598,0.4589,0.4661,0.4651,0.457,0.4718,0.4642,0.4659,0.4688,0.4713,0.4733,0.4678,0.4436,0,0,0,0,0,0.4336,0.4439,0.4517,0.4632,0.4671,0.469,0.4731,0.472,0.474,0.4742,0.471,0.4706,0.474,0.4742,0.4776,0.4859,0.4841,0.4906,0.4926,0.4943,0.4914,0.5006,0.5029,0.4787,0.4787,0.4787,0,0,0.4372,0.4442,0.45,0.464,0.468,0.4753,0.47,0.4784,0.4808,0.4736,0.4763,0.4782,0.4789,0.4865,0.4898,0.4845,0.5006,0.4962,0.4974,0.4935,0.5023,0.5046,0.5065,0.4797,0.4795,0.4794,0,0,0.4484,0.4563,0.4673,0.4739,0.4827,0.4831,0.4862,0.4913,0.4902,0.4974,0.4917,0.4958,0.5019,0.5007,0.5014,0.5189,0.5123,0.5233,0.5264,0.5356,0.5374,0.5389,0.5376,0.5389,0.5228,0.5228,0.5228,0,0.454,0.4659,0.4722,0.4829,0.4857,0.4865,0.4938,0.4968,0.5016,0.5007,0.4994,0.5075,0.5072,0.5129,0.5182,0.5219,0.5244,0.5146,0.5373,0.5388,0.5402,0.5385,0.5399,0.5234,0.5233,0.5233,0.5232,0,0.4708,0.4791,0.4863,0.4969,0.5019,0.5099,0.512,0.5149,0.5125,0.5128,0.5195,0.5224,0.5246,0.5293,0.5278,0.5391,0.5365,0.539,0.5279,0.5429,0.5404,0.5416,0.5242,0.524,0.5238,0.5237,0,0,0.4865,0.4962,0.4981,0.4993,0.5081,0.5125,0.5169,0.5199,0.519,0.526,0.5272,0.5357,0.5351,0.5366,0.5378,0.5454,0.5568,0.5469,0.5472,0.5398,0.572,0.5354,0.5332,0.5654,0.5658,0.5661,0.5651,0,0.4971,0.5112,0.5132,0.5205,0.5254,0.5239,0.5262,0.5279,0.5283,0.5309,0.5342,0.5383,0.5388,0.5407,0.5493,0.5555,0.5612,0.5563,0.5635,0.5633,0.5244,0.5338,0.5025,0.4962,0.5663,0.5665,0.5666,0,0.5109,0.5169,0.5255,0.5241,0.5261,0.5291,0.5262,0.5292,0.5321,0.533,0.5376,0.5405,0.5482,0.5502,0.5638,0.5621,0.5671,0.5719,0.5721,0.5346,0.529,0.4939,0.4957,0.4861,0.5684,0.5683,0.5681,0,0.5113,0.5221,0.525,0.5276,0.5307,0.5295,0.5282,0.5291,0.528,0.5337,0.5347,0.545,0.5481,0.5612,0.564,0.5689,0.5773,0.585,0.5554,0.5527,0.5243,0.5181,0.5113,0.5963,0.5963,0.5963,0.5963,0,0.5181,0.5198,0.5249,0.5274,0.5272,0.5287,0.5263,0.5269,0.5282,0.5275,0.5349,0.5373,0.5531,0.557,0.5652,0.5561,0.577,0.5528,0.5505,0.5258,0.5201,0.5086,0.5121,0.5963,0.5963,0.5963,0.5963,0,0.5149,0.5205,0.523,0.5268,0.5272,0.5258,0.5222,0.5208,0.5226,0.5229,0.5246,0.5327,0.5341,0.5393,0.5543,0.5485,0.5311,0.5421,0.5033,0.4958,0.454,0.4591,0.4291,0.4204,0.5108,0.5099,0.5092,0,0.5111,0.5145,0.5205,0.5216,0.5225,0.5207,0.5186,0.5181,0.5162,0.5187,0.5192,0.519,0.5144,0.5098,0.4984,0.4915,0.4961,0.4592,0.4608,0.4416,0.4466,0.4384,0.4336,0.4297,0.4284,0.4273,0.4264,0,0.5058,0.5104,0.5156,0.5177,0.5172,0.5128,0.5099,0.506,0.5053,0.5038,0.4984,0.4946,0.4782,0.4495,0.4308,0.4293,0.4312,0.4352,0.4331,0.392,0.366,0.3595,0.436,0.4165,0.4175,0.4182,0.4187,0.4191,0.5016,0.505,0.5142,0.5121,0.5116,0.5024,0.4881,0.4863,0.4778,0.4589,0.4725,0.4451,0.4165,0.3814,0.3747,0.3355,0.3574,0.3278,0.3387,0.3342,0.3132,0.3562,0.3219,0.3223,0.3227,0.323,0.3233,0,0.4971,0.5038,0.5055,0.5026,0.4914,0.4933,0.4794,0.4569,0.437,0.424,0.4087,0.3609,0.3256,0.3031,0.2629,0.2466,0.2465,0.2424,0.2372,0.2413,0.2944,0.2778,0.2103,0.2103,0.2103,0.2103,0.2104,0.2104,0.4973,0.5009,0.5006,0.4826,0.4747,0.4445,0.4284,0.3998,0.3791,0.3289,0.2909,0.2778,0.2619,0.2283,0.1993,0.195,0.1963,0.168,0.1903,0.2411,0.2504,0.2594,0.2446,0.1712,0.1712,0.12,0.1197,0.1194]},{"header":{"parameterUnit":"m.s-1","parameterCategory":2,"la1":30.2991,"la2":30.254,"lo1":-89.0895,"lo2":-89.0444,"dy":0.0017,"dx":0.0017,"nx":28,"ny":28,"refTime":"2023-08-12T21:00:00:Z","depth":"0","parameterNumber":3,"parameterNumberName":"V-component_of_CURRENTS"},"data":[0,0,0,0,0,0,0,0,0,0,0,0,0,0,0,0,0,0,0,0,0,0,0,0,0,0,0,0,0,0,0,0,0,0,0,0,0,0,0,0,0,0,0,0,0,0,0,0,0,0,0,0,0,0,0,0,0,0,0.05,0.05,0,0.0485,0.0485,0.0485,0.0457,0.0456,0.0455,0.0454,0.0531,0.0533,0.0536,0,0,0,0,0,0,0,0,0,0,0,0,0,0.051,0.0511,0.05,0.05,0.0499,0.0485,0.0485,0.0485,0.0457,0.0456,0.0455,0.0454,0.053,0.0533,0.0536,0,0,0,0,0,0,0,0,0,0,0,0,0,0.0504,0.0511,0.05,0.0481,0.0479,0.0485,0.0485,0.0485,0.0457,0.0456,0.0455,0.0454,0.0529,0.0533,0.0537,0.0587,0,0,0.055,0.0551,0,0,0,0,0,0,0,0,0.0505,0.0504,0.0485,0.0483,0.048,0.0469,0.0516,0.0523,0.0457,0.0469,0.0454,0.0453,0.0518,0.0523,0.0525,0.059,0.0594,0.055,0.0553,0.0554,0.0555,0,0,0,0,0,0,0,0.0505,0.0505,0.0497,0.0484,0.0482,0.0476,0.0474,0.0517,0.0504,0.0467,0.0465,0.0459,0.0517,0.0521,0.0527,0.0595,0.055,0.0554,0.0556,0.0558,0.0772,0.0775,0,0,0,0,0,0,0.0503,0.0505,0.0497,0.0496,0.0487,0.0476,0.0474,0.0476,0.0501,0.0502,0.046,0.0458,0.0515,0.0522,0.053,0.0648,0.0554,0.0558,0.0561,0.0769,0.0773,0.0776,0,0,0,0,0,0,0.0503,0.0503,0.0498,0.0498,0.0496,0.0477,0.048,0.0477,0.0482,0.0494,0.0497,0.0468,0.0514,0.0524,0.0564,0.0648,0.056,0.0564,0.0765,0.077,0.0775,0.0848,0,0,0,0,0,0,0.0504,0.0503,0.0512,0.0498,0.0496,0.0513,0.048,0.0477,0.0479,0.0476,0.0503,0.0508,0.0514,0.0557,0.0568,0.0653,0.0567,0.0761,0.0767,0.0773,0.0842,0.0855,0.0866,0,0,0,0,0,0.0504,0.0519,0.0513,0.0512,0.0506,0.0514,0.0514,0.0497,0.0481,0.0496,0.05,0.0507,0.0605,0.0562,0.0574,0.0662,0.0758,0.0766,0.0773,0.0836,0.0852,0.0866,0,0,0,0,0,0,0.0506,0.0517,0.051,0.052,0.0522,0.0508,0.0514,0.0506,0.0521,0.0519,0.0525,0.0532,0.0605,0.0621,0.0574,0.0744,0.0694,0.0704,0.0739,0.0754,0.0766,0.0791,0.0571,0,0,0,0,0,0.0516,0.0544,0.0537,0.0546,0.0545,0.0534,0.0535,0.053,0.0534,0.0538,0.0553,0.059,0.0648,0.0683,0.0721,0.0806,0.0816,0.088,0.0892,0.0902,0.0933,0.1045,0.107,0.08,0.08,0.08,0,0,0.0514,0.0526,0.0537,0.0551,0.0545,0.0563,0.0532,0.0542,0.0571,0.0549,0.0593,0.0622,0.0674,0.0761,0.0801,0.0785,0.0968,0.0911,0.0919,0.0946,0.1055,0.1082,0.1105,0.0805,0.0804,0.0803,0,0,0.0531,0.0538,0.0567,0.0579,0.0587,0.0589,0.0595,0.0595,0.061,0.0652,0.066,0.0743,0.0793,0.0875,0.0918,0.1031,0.1017,0.1042,0.1142,0.125,0.1273,0.1294,0.1261,0.1279,0.1064,0.1064,0.1064,0,0.0516,0.0563,0.0573,0.06,0.0617,0.0604,0.0634,0.0652,0.0669,0.0718,0.0676,0.0834,0.0868,0.1034,0.1065,0.1068,0.1061,0.1075,0.1266,0.1287,0.1308,0.127,0.1288,0.1068,0.1068,0.1067,0.1067,0,0.0558,0.0594,0.0607,0.065,0.0674,0.0696,0.072,0.0758,0.077,0.0808,0.0943,0.0993,0.1103,0.1138,0.1129,0.1317,0.1236,0.1252,0.1223,0.1339,0.129,0.1308,0.1075,0.1073,0.1072,0.1071,0,0,0.051,0.0616,0.0617,0.0668,0.0707,0.0735,0.08,0.0881,0.0965,0.1005,0.1143,0.1249,0.129,0.1345,0.1378,0.1476,0.1579,0.1421,0.1424,0.1376,0.1707,0.155,0.1552,0.1619,0.1625,0.1629,0.1584,0,0.0528,0.0614,0.0662,0.0744,0.0791,0.0831,0.0905,0.0988,0.1058,0.1186,0.1293,0.1418,0.1366,0.1442,0.1535,0.1596,0.1642,0.1582,0.1614,0.1613,0.1454,0.1577,0.148,0.1427,0.1601,0.1604,0.1607,0,0.0551,0.0616,0.0702,0.084,0.0862,0.0912,0.1061,0.113,0.1303,0.137,0.1516,0.158,0.175,0.1684,0.1822,0.1775,0.1742,0.1754,0.1753,0.1608,0.1495,0.1359,0.1452,0.1403,0.1634,0.1631,0.1629,0,0.0544,0.0652,0.0735,0.0768,0.0902,0.0968,0.1041,0.1195,0.13,0.1503,0.1614,0.1781,0.1896,0.1933,0.1913,0.1886,0.2016,0.199,0.1795,0.1776,0.1707,0.1674,0.1761,0.2074,0.2075,0.2075,0.2075,0,0.0568,0.0641,0.0742,0.0787,0.0913,0.0994,0.1152,0.1251,0.1439,0.161,0.1711,0.1874,0.1973,0.2041,0.1984,0.1928,0.2064,0.1834,0.18,0.1715,0.1686,0.1647,0.1624,0.2073,0.2073,0.2074,0.2074,0,0.0591,0.0642,0.0747,0.0871,0.0918,0.1009,0.1194,0.133,0.1473,0.1705,0.1778,0.1983,0.2059,0.2058,0.2128,0.2014,0.192,0.1902,0.1714,0.166,0.1416,0.1399,0.1434,0.1441,0.1705,0.1702,0.1699,0,0.0636,0.0685,0.0791,0.0858,0.0923,0.1061,0.1179,0.1335,0.1485,0.1765,0.1896,0.2035,0.2141,0.2115,0.1967,0.1811,0.1798,0.1594,0.1561,0.1416,0.1377,0.1376,0.1383,0.1453,0.1448,0.1445,0.1441,0,0.0737,0.0747,0.0832,0.0928,0.1039,0.118,0.135,0.1461,0.1673,0.1841,0.2068,0.2164,0.2116,0.1965,0.1725,0.1616,0.154,0.1504,0.1486,0.1302,0.119,0.1172,0.1366,0.1407,0.1411,0.1413,0.1415,0.1416,0.0816,0.0871,0.0944,0.1037,0.1166,0.1314,0.142,0.1597,0.1799,0.2024,0.2118,0.2195,0.1984,0.166,0.1508,0.1163,0.1269,0.107,0.1082,0.111,0.1086,0.1119,0.105,0.1051,0.1053,0.1054,0.1054,0,0.0898,0.0954,0.1062,0.1178,0.1313,0.1359,0.1559,0.1644,0.1839,0.1997,0.2121,0.1961,0.1684,0.1416,0.0965,0.0788,0.0803,0.0736,0.0776,0.0827,0.0965,0.0923,0.0668,0.0668,0.0668,0.0669,0.0669,0.0669,0.0951,0.1046,0.1074,0.1282,0.138,0.1529,0.1623,0.1717,0.1814,0.1866,0.1823,0.1815,0.1623,0.101,0.064,0.0577,0.0602,0.0491,0.0591,0.0705,0.074,0.0773,0.0734,0.0443,0.0443,0.0458,0.0458,0.0458]}],[{"header":{"parameterUnit":"m.s-1","parameterCategory":2,"la1":30.2991,"la2":30.254,"lo1":-89.0895,"lo2":-89.0444,"dy":0.0017,"dx":0.0017,"nx":28,"ny":28,"refTime":"2023-08-12T21:00:00:Z","depth":"2","parameterNumber":2,"parameterNumberName":"U-component_of_CURRENTS"},"data":[0,0,0,0,0,0,0,0,0,0,0,0,0,0,0,0,0,0,0,0,0,0,0,0,0,0,0,0,0,0,0,0,0,0,0,0,0,0,0,0,0,0,0,0,0,0,0,0,0,0,0,0,0,0,0,0,0,0,0.2302,0.2304,0,0.2604,0.2608,0.2612,0.2684,0.2681,0.2678,0.2676,0.2842,0.2849,0.2856,0,0,0,0,0,0,0,0,0,0,0,0,0,0.241,0.2404,0.2302,0.2305,0.2307,0.2603,0.2608,0.2613,0.2685,0.2681,0.2678,0.2674,0.2839,0.2848,0.2856,0,0,0,0,0,0,0,0,0,0,0,0,0,0.251,0.2402,0.2301,0.2372,0.238,0.2602,0.2608,0.2614,0.2685,0.2681,0.2677,0.2673,0.2837,0.2847,0.2858,0.3011,0,0,0.289,0.2895,0,0,0,0,0,0,0,0,0.2503,0.2506,0.2358,0.2367,0.2377,0.2593,0.2707,0.2737,0.2687,0.258,0.2675,0.267,0.2743,0.2761,0.2843,0.3019,0.3026,0.2891,0.2898,0.2902,0.2905,0,0,0,0,0,0,0,0.2495,0.2498,0.2431,0.2362,0.2373,0.2601,0.2606,0.2718,0.2687,0.2589,0.2592,0.2612,0.2748,0.2833,0.2847,0.3029,0.2891,0.29,0.2907,0.2911,0.3203,0.3204,0,0,0,0,0,0,0.2409,0.2487,0.2421,0.2439,0.242,0.2599,0.2605,0.2536,0.2689,0.2707,0.2615,0.2614,0.2817,0.2835,0.2853,0.2979,0.2902,0.2912,0.2918,0.3201,0.3203,0.3204,0,0,0,0,0,0,0.2409,0.2397,0.2409,0.247,0.2485,0.2596,0.2523,0.2544,0.2681,0.2709,0.2725,0.2732,0.2814,0.2838,0.2886,0.2987,0.2917,0.2927,0.32,0.3202,0.3204,0.3271,0,0,0,0,0,0,0.2409,0.2393,0.2357,0.2459,0.2477,0.2495,0.2526,0.2553,0.2691,0.2695,0.2815,0.2822,0.2813,0.2869,0.2897,0.3,0.2935,0.3198,0.3201,0.3203,0.3267,0.3275,0.3282,0,0,0,0,0,0.2411,0.2374,0.235,0.2346,0.2404,0.2495,0.2527,0.2606,0.2702,0.2728,0.2776,0.2821,0.2905,0.2878,0.291,0.302,0.3197,0.32,0.3203,0.3264,0.3274,0.3282,0,0,0,0,0,0,0.2416,0.238,0.2356,0.2307,0.2366,0.2501,0.2579,0.2669,0.2762,0.2792,0.2838,0.2845,0.2921,0.296,0.293,0.3102,0.3065,0.3075,0.3101,0.3111,0.3118,0.3133,0.2944,0,0,0,0,0,0.2387,0.2345,0.2357,0.2335,0.2366,0.2505,0.2583,0.2638,0.2722,0.2771,0.284,0.2915,0.2968,0.302,0.305,0.3183,0.324,0.327,0.3277,0.3283,0.3312,0.3532,0.3564,0.3214,0.3214,0.3214,0,0,0.2411,0.2372,0.2364,0.2337,0.2422,0.2498,0.2545,0.2668,0.2752,0.2774,0.2919,0.2943,0.2995,0.3071,0.3121,0.3122,0.3383,0.3287,0.3293,0.3318,0.3539,0.3574,0.3605,0.3216,0.3216,0.3215,0,0,0.2471,0.2379,0.2396,0.2429,0.2504,0.2558,0.2603,0.2741,0.2804,0.2914,0.2941,0.3012,0.3132,0.317,0.3213,0.3309,0.3395,0.3342,0.3438,0.3651,0.3683,0.3713,0.371,0.3739,0.3375,0.3375,0.3375,0,0.2518,0.2468,0.2435,0.2478,0.2521,0.2592,0.2672,0.2764,0.2898,0.2945,0.2936,0.3139,0.3184,0.3318,0.3321,0.3339,0.3405,0.3402,0.3668,0.3699,0.3729,0.372,0.3752,0.3378,0.3378,0.3377,0.3377,0,0.259,0.2577,0.2615,0.2633,0.2673,0.2755,0.2813,0.2885,0.2975,0.3055,0.3181,0.3234,0.3351,0.3392,0.3394,0.3627,0.3575,0.3634,0.3657,0.377,0.3748,0.378,0.3383,0.3382,0.3381,0.338,0,0,0.2645,0.2658,0.2681,0.2682,0.2752,0.2785,0.2894,0.2974,0.3067,0.3181,0.3316,0.3428,0.3488,0.354,0.3591,0.3778,0.3994,0.3813,0.3823,0.3823,0.4343,0.3885,0.3874,0.4145,0.4154,0.4161,0.4201,0,0.2732,0.2786,0.2782,0.2868,0.2892,0.2925,0.3002,0.3082,0.3155,0.328,0.3399,0.3532,0.3544,0.3625,0.3817,0.3964,0.4103,0.3969,0.4221,0.4224,0.3823,0.3907,0.364,0.3622,0.4232,0.4238,0.4241,0,0.279,0.2802,0.2884,0.2893,0.2917,0.2987,0.305,0.3136,0.3288,0.3358,0.3519,0.3613,0.3852,0.3875,0.4213,0.4141,0.4252,0.435,0.4357,0.3945,0.3831,0.3632,0.3657,0.4295,0.4291,0.4287,0.4283,0,0.2769,0.2848,0.2887,0.2909,0.297,0.3013,0.3061,0.3172,0.3252,0.3446,0.355,0.3787,0.3959,0.4194,0.4316,0.435,0.4631,0.4707,0.4361,0.4322,0.4144,0.4072,0.4973,0.4973,0.4973,0.4973,0.4973,0,0.2786,0.282,0.2884,0.291,0.2968,0.3007,0.3106,0.3175,0.3333,0.3457,0.3624,0.3775,0.4092,0.4243,0.4362,0.4368,0.4672,0.4366,0.4345,0.4128,0.4059,0.4711,0.468,0.4974,0.4974,0.4974,0.4973,0,0.2749,0.2801,0.2838,0.2922,0.2958,0.2999,0.313,0.3198,0.3351,0.3531,0.3621,0.3864,0.3998,0.4108,0.4418,0.4374,0.4451,0.437,0.3935,0.3857,0.3985,0.3958,0.406,0.4045,0.4033,0.4022,0.4013,0,0.2742,0.2758,0.2845,0.2892,0.2947,0.3026,0.3091,0.3212,0.3303,0.3564,0.3661,0.3815,0.385,0.3924,0.3866,0.3815,0.408,0.3537,0.3553,0.3943,0.3916,0.3907,0.3896,0.3327,0.3314,0.3303,0.3294,0,0.275,0.2783,0.2824,0.2884,0.2959,0.302,0.3129,0.3176,0.334,0.3439,0.3559,0.3597,0.3576,0.3364,0.3182,0.3168,0.3504,0.3288,0.3989,0.3509,0.3233,0.3208,0.323,0.3193,0.3203,0.3211,0.3216,0.322,0.2796,0.2792,0.2845,0.2878,0.2967,0.3,0.2996,0.3076,0.312,0.3159,0.3307,0.3206,0.3179,0.2703,0.2576,0.2458,0.2728,0.2725,0.2774,0.2832,0.2649,0.2358,0.2111,0.2114,0.2117,0.212,0.2123,0,0.2811,0.2808,0.2838,0.285,0.2865,0.2951,0.3017,0.2918,0.2871,0.2857,0.2823,0.2451,0.2227,0.2191,0.1851,0.1761,0.1923,0.1709,0.1988,0.2082,0.2167,0.1967,0.124,0.1238,0.1236,0.1234,0,0,0.285,0.2811,0.2755,0.2737,0.2775,0.2765,0.2771,0.2582,0.2521,0.2242,0.2109,0.2136,0.2157,0.1709,0.1585,0.1387,0.1762,0.1317,0.2022,0.245,0.2534,0.2722,0.2507,0,0,0,0,0]},{"header":{"parameterUnit":"m.s-1","parameterCategory":2,"la1":30.2991,"la2":30.254,"lo1":-89.0895,"lo2":-89.0444,"dy":0.0017,"dx":0.0017,"nx":28,"ny":28,"refTime":"2023-08-12T21:00:00:Z","depth":"2","parameterNumber":3,"parameterNumberName":"V-component_of_CURRENTS"},"data":[0,0,0,0,0,0,0,0,0,0,0,0,0,0,0,0,0,0,0,0,0,0,0,0,0,0,0,0,0,0,0,0,0,0,0,0,0,0,0,0,0,0,0,0,0,0,0,0,0,0,0,0,0,0,0,0,0,0,-0.0222,-0.0222,0,-0.0197,-0.0196,-0.0195,-0.0133,-0.0132,-0.0132,-0.0131,-0.0128,-0.0129,-0.0129,0,0,0,0,0,0,0,0,0,0,0,0,0,-0.0114,-0.0116,-0.0222,-0.0222,-0.0223,-0.0198,-0.0196,-0.0195,-0.0133,-0.0132,-0.0131,-0.0131,-0.0128,-0.0129,-0.0129,0,0,0,0,0,0,0,0,0,0,0,0,0,-0.0124,-0.0117,-0.0222,-0.0195,-0.0193,-0.0198,-0.0196,-0.0195,-0.0133,-0.0132,-0.0131,-0.0131,-0.0128,-0.0129,-0.0129,-0.0149,0,0,-0.0131,-0.0132,0,0,0,0,0,0,0,0,-0.0124,-0.0127,-0.0199,-0.0197,-0.0195,-0.0175,-0.0158,-0.0184,-0.0133,-0.0146,-0.0131,-0.013,-0.0152,-0.0151,-0.0135,-0.0149,-0.0149,-0.0131,-0.0132,-0.0132,-0.0132,0,0,0,0,0,0,0,-0.0123,-0.0127,-0.0203,-0.0199,-0.0197,-0.0151,-0.0151,-0.0161,-0.0148,-0.0145,-0.0143,-0.0154,-0.015,-0.0135,-0.0135,-0.0149,-0.0131,-0.0132,-0.0132,-0.0132,-0.0101,-0.01,0,0,0,0,0,0,-0.0151,-0.0128,-0.0204,-0.0203,-0.0167,-0.0154,-0.0154,-0.0175,-0.0147,-0.0144,-0.0155,-0.0152,-0.0134,-0.0134,-0.0135,-0.0111,-0.0132,-0.0133,-0.0133,-0.0103,-0.0101,-0.01,0,0,0,0,0,0,-0.0149,-0.0158,-0.0205,-0.0171,-0.0175,-0.0159,-0.0181,-0.0175,-0.0161,-0.0156,-0.0152,-0.0149,-0.0133,-0.0134,-0.0138,-0.0112,-0.0133,-0.0133,-0.0104,-0.0102,-0.01,-0.0093,0,0,0,0,0,0,-0.0146,-0.0158,-0.0167,-0.0174,-0.0178,-0.0197,-0.0183,-0.0176,-0.0174,-0.0169,-0.015,-0.0148,-0.0133,-0.0137,-0.0139,-0.0113,-0.0134,-0.0105,-0.0103,-0.0101,-0.0094,-0.0091,-0.0088,0,0,0,0,0,-0.0142,-0.0151,-0.0168,-0.0177,-0.0197,-0.0198,-0.0194,-0.0173,-0.0175,-0.0159,-0.0154,-0.0149,-0.0123,-0.0138,-0.014,-0.0114,-0.0107,-0.0104,-0.0101,-0.0096,-0.0092,-0.0088,0,0,0,0,0,0,-0.011,-0.0147,-0.0165,-0.0187,-0.0195,-0.019,-0.0179,-0.0182,-0.0165,-0.0163,-0.0156,-0.0154,-0.0148,-0.0134,-0.0152,-0.0094,-0.0105,-0.0103,-0.01,-0.0096,-0.0093,-0.004,-0.0134,0,0,0,0,0,-0.0115,-0.0126,-0.016,-0.0175,-0.0185,-0.0189,-0.0187,-0.0181,-0.0179,-0.0168,-0.0172,-0.0156,-0.0138,-0.0122,-0.0118,-0.0098,-0.0042,-0.0073,-0.007,-0.0067,-0.0023,0.0124,0.0146,-0.0091,-0.0091,-0.0091,0,0,-0.011,-0.013,-0.0138,-0.0167,-0.0172,-0.0157,-0.0181,-0.0181,-0.0151,-0.0176,-0.0148,-0.0168,-0.0137,-0.0109,-0.0101,-0.0092,0.001,-0.0064,-0.0062,-0.0018,0.0129,0.0153,0.0174,-0.0089,-0.0089,-0.009,0,0,-0.0085,-0.0125,-0.0118,-0.0121,-0.014,-0.0138,-0.0145,-0.0161,-0.0148,-0.0145,-0.0145,-0.0142,-0.0133,-0.0088,-0.0063,-0.0037,0.0005,-0.0044,0.0036,0.0176,0.0198,0.0218,0.0234,0.0256,-0.0019,-0.0019,-0.0019,0,-0.0086,-0.0075,-0.0113,-0.0099,-0.009,-0.013,-0.0104,-0.0093,-0.0106,-0.0087,-0.013,-0.0091,-0.0101,-0.001,-0.0003,-0.0026,0.0028,0.0011,0.0184,0.0206,0.0227,0.0239,0.0263,-0.0018,-0.0019,-0.0019,-0.0019,0,-0.0044,-0.0032,-0.0028,-0.0019,-0.0012,-0.0002,-0.0008,-0.0002,-0.002,-0.0011,0.002,0.0001,0.0046,0.0029,0.0018,0.0154,0.0127,0.0151,0.0177,0.0252,0.0257,0.0283,-0.0017,-0.0018,-0.0018,-0.0018,0,0,-0.0076,-0.0011,-0.0016,0.0022,0.003,0.0038,0.0087,0.0123,0.0172,0.014,0.0219,0.0207,0.0183,0.0211,0.0189,0.0294,0.0417,0.029,0.0297,0.0309,0.0661,0.0487,0.0496,0.0493,0.0499,0.0504,0.0575,0,-0.0039,0.0028,0.0046,0.0117,0.0155,0.0155,0.0208,0.0238,0.0253,0.0311,0.0312,0.0354,0.0264,0.0277,0.0367,0.0426,0.05,0.0391,0.0587,0.059,0.0434,0.0528,0.0468,0.0517,0.06,0.0604,0.0607,0,-0.0006,0.004,0.0118,0.0212,0.0221,0.025,0.033,0.0371,0.0451,0.0467,0.0517,0.0518,0.0616,0.0539,0.07,0.0643,0.0657,0.0684,0.0689,0.0563,0.0468,0.0475,0.056,0.0649,0.0646,0.0643,0.064,0,0.0014,0.0094,0.0165,0.0189,0.0273,0.0303,0.0334,0.0406,0.0469,0.0571,0.0646,0.0729,0.0806,0.0874,0.0862,0.083,0.1036,0.1004,0.0843,0.0825,0.0833,0.0806,0.1147,0.1147,0.1146,0.1146,0.1146,0,0.0066,0.0122,0.0171,0.0207,0.0284,0.0319,0.0405,0.0455,0.0561,0.0692,0.0718,0.0857,0.092,0.1011,0.0969,0.0964,0.1122,0.0884,0.0873,0.0815,0.0787,0.0966,0.0944,0.1149,0.1148,0.1148,0.1147,0,0.0112,0.0144,0.0226,0.0289,0.0302,0.0347,0.0433,0.052,0.0604,0.0792,0.0844,0.102,0.1122,0.1092,0.1213,0.1107,0.1105,0.1051,0.0893,0.0861,0.0761,0.0739,0.0917,0.0912,0.0908,0.0905,0.0902,0,0.0161,0.0203,0.026,0.0301,0.0328,0.0387,0.0449,0.0523,0.0643,0.0904,0.1034,0.1174,0.1288,0.1295,0.1127,0.0987,0.1036,0.0847,0.077,0.0786,0.0759,0.0742,0.0725,0.0753,0.075,0.0747,0.0744,0,0.0252,0.025,0.0316,0.0381,0.0434,0.0525,0.0623,0.0733,0.0892,0.1052,0.1328,0.1432,0.137,0.1237,0.0973,0.0871,0.0851,0.0771,0.0972,0.0776,0.0628,0.06,0.0592,0.0717,0.072,0.0722,0.0723,0.0724,0.031,0.0371,0.0429,0.0493,0.0562,0.0702,0.0815,0.0962,0.1165,0.1398,0.1483,0.1558,0.1402,0.1001,0.0815,0.0573,0.0611,0.0558,0.0573,0.0589,0.0514,0.0364,0.0382,0.0383,0.0384,0.0384,0.0385,0,0.0417,0.0465,0.0542,0.0663,0.0779,0.0775,0.0971,0.1073,0.133,0.144,0.1565,0.1346,0.1168,0.0952,0.053,0.033,0.0359,0.0295,0.0396,0.0421,0.0444,0.0367,0.0194,0.0193,0.0193,0.0193,0,0,0.048,0.0594,0.0628,0.0828,0.0918,0.107,0.1193,0.1302,0.137,0.1446,0.1422,0.1391,0.1175,0.0855,0.0596,0.0385,0.0453,0.0339,0.0501,0.0671,0.0697,0.0588,0.0494,0,0,0,0,0]}],[{"header":{"parameterUnit":"m.s-1","parameterCategory":2,"la1":30.2991,"la2":30.254,"lo1":-89.0895,"lo2":-89.0444,"dy":0.0017,"dx":0.0017,"nx":28,"ny":28,"refTime":"2023-08-12T21:00:00:Z","depth":"4","parameterNumber":2,"parameterNumberName":"U-component_of_CURRENTS"},"data":[0,0,0,0,0,0,0,0,0,0,0,0,0,0,0,0,0,0,0,0,0,0,0,0,0,0,0,0,0,0,0,0,0,0,0,0,0,0,0,0,0,0,0,0,0,0,0,0,0,0,0,0,0,0,0,0,0,0,0.053,0.053,0,0.0481,0.048,0.0479,0.0532,0.0535,0.0537,0.054,0.0574,0.0573,0.0572,0,0,0,0,0,0,0,0,0,0,0,0,0,0.0655,0.0652,0.053,0.053,0.0529,0.0481,0.048,0.0478,0.0532,0.0535,0.0538,0.0541,0.0575,0.0573,0.0572,0,0,0,0,0,0,0,0,0,0,0,0,0,0.0598,0.0651,0.053,0.0554,0.0556,0.0481,0.0479,0.0478,0.0531,0.0535,0.0539,0.0542,0.0575,0.0573,0.0571,0.0484,0,0,0.0565,0.0564,0,0,0,0,0,0,0,0,0.0601,0.0593,0.055,0.0552,0.0554,0.0521,0.0537,0.0486,0.053,0.0536,0.054,0.0544,0.0564,0.0563,0.0538,0.0486,0.0487,0.0565,0.0564,0.0563,0.0562,0,0,0,0,0,0,0,0.0605,0.0595,0.0506,0.055,0.0552,0.0562,0.0558,0.0526,0.0528,0.0535,0.054,0.0541,0.0566,0.054,0.054,0.0488,0.0565,0.0563,0.0562,0.0561,0.0583,0.0585,0,0,0,0,0,0,0.0616,0.0598,0.0507,0.0505,0.0593,0.0557,0.0552,0.0524,0.0526,0.0531,0.0538,0.0544,0.0542,0.0542,0.0541,0.0631,0.0563,0.0561,0.056,0.0582,0.0584,0.0586,0,0,0,0,0,0,0.0618,0.0607,0.0509,0.0557,0.0546,0.0552,0.0519,0.0521,0.0537,0.0528,0.0535,0.0558,0.0544,0.0544,0.056,0.0626,0.056,0.0558,0.0579,0.0582,0.0585,0.0687,0,0,0,0,0,0,0.0622,0.0607,0.0593,0.0556,0.0543,0.0488,0.0516,0.0517,0.0531,0.0539,0.0546,0.0551,0.0547,0.0563,0.0558,0.0622,0.0556,0.0577,0.0581,0.0584,0.0681,0.0692,0.0702,0,0,0,0,0,0.0626,0.0586,0.0592,0.0582,0.0521,0.0488,0.0482,0.0497,0.0529,0.0527,0.0551,0.0553,0.0584,0.0561,0.0555,0.062,0.0575,0.058,0.0584,0.0676,0.069,0.0702,0,0,0,0,0,0,0.0633,0.0587,0.0593,0.0542,0.0533,0.0501,0.0495,0.0508,0.0516,0.0535,0.0546,0.055,0.0604,0.0579,0.0555,0.0639,0.0591,0.0594,0.0664,0.0676,0.0687,0.0721,0.0555,0,0,0,0,0,0.0625,0.0585,0.056,0.0524,0.0521,0.0514,0.0507,0.0513,0.0514,0.0523,0.0539,0.0564,0.0601,0.0615,0.0624,0.0634,0.0617,0.0682,0.0692,0.0702,0.0726,0.0797,0.0817,0.0599,0.0599,0.0599,0,0,0.0619,0.0589,0.0569,0.0524,0.0517,0.0501,0.0519,0.0507,0.0521,0.0521,0.0557,0.0594,0.0613,0.0658,0.068,0.0653,0.0733,0.0707,0.0715,0.0735,0.0803,0.0825,0.0844,0.0602,0.0602,0.0601,0,0,0.0594,0.0564,0.0535,0.0524,0.0513,0.0498,0.0507,0.0498,0.0532,0.0544,0.0592,0.0672,0.0668,0.0735,0.076,0.0824,0.0793,0.0832,0.0909,0.0978,0.0997,0.1014,0.0929,0.0938,0.0834,0.0834,0.0834,0,0.06,0.0548,0.0527,0.0509,0.0516,0.0507,0.0508,0.0509,0.0518,0.0581,0.0572,0.0696,0.0717,0.0834,0.0882,0.0856,0.0835,0.086,0.0995,0.1011,0.1027,0.0937,0.0945,0.084,0.0839,0.0838,0.0838,0,0.0554,0.0531,0.0516,0.049,0.0497,0.048,0.05,0.053,0.0571,0.061,0.074,0.0776,0.0885,0.0901,0.0913,0.1059,0.0981,0.1004,0.0965,0.1056,0.0952,0.0959,0.0847,0.0845,0.0844,0.0842,0,0,0.0489,0.049,0.0482,0.0505,0.0491,0.0495,0.0538,0.06,0.0685,0.0718,0.085,0.0947,0.103,0.1067,0.1112,0.1164,0.1236,0.1144,0.1145,0.1061,0.1284,0.1201,0.1198,0.1298,0.1302,0.1306,0.1133,0,0.0461,0.0459,0.0462,0.0473,0.0479,0.0523,0.058,0.0652,0.0727,0.0839,0.094,0.1058,0.1073,0.116,0.1233,0.1267,0.1276,0.1274,0.1207,0.1202,0.1125,0.1214,0.1319,0.1138,0.114,0.1141,0.1142,0,0.0395,0.0407,0.0445,0.0519,0.0534,0.056,0.0701,0.0754,0.091,0.0997,0.1146,0.1206,0.1345,0.1324,0.1406,0.1409,0.137,0.1338,0.1332,0.124,0.1139,0.1051,0.1153,0.1153,0.1152,0.1151,0.115,0,0.036,0.0386,0.0441,0.0452,0.0534,0.0613,0.0677,0.0828,0.0927,0.1119,0.1191,0.136,0.1442,0.1471,0.145,0.1449,0.1459,0.1443,0.1286,0.127,0.1345,0.133,0.1472,0.1473,0.1473,0.1474,0.1474,0,0.0306,0.0328,0.0445,0.046,0.0551,0.0643,0.0797,0.088,0.1064,0.1187,0.1297,0.1378,0.1499,0.1511,0.1474,0.1404,0.1487,0.1312,0.1269,0.1372,0.1364,0.1342,0.1329,0.1467,0.1468,0.147,0.1471,0,0.0243,0.031,0.0359,0.0485,0.0532,0.0614,0.0816,0.0932,0.1091,0.1244,0.1303,0.1428,0.1463,0.1466,0.1486,0.1415,0.1355,0.1286,0.1307,0.1264,0.1078,0.1072,0.1091,0.1087,0.1085,0.1082,0.108,0,0.0219,0.0243,0.0364,0.0425,0.0485,0.0641,0.0748,0.0933,0.1053,0.1242,0.1283,0.1366,0.1432,0.1353,0.138,0.1271,0.1251,0.1154,0.1215,0.1107,0.1062,0.1061,0.1059,0.1076,0.1075,0.1074,0.1074,0,0.0165,0.0222,0.0294,0.0382,0.0491,0.0597,0.0756,0.0846,0.1069,0.1192,0.129,0.1302,0.1315,0.1324,0.1257,0.1176,0.1214,0.1125,0.113,0.1185,0.1089,0.1047,0.1048,0.1064,0.1065,0.1066,0.1067,0,0.0156,0.019,0.0286,0.0372,0.0463,0.0523,0.063,0.0794,0.0924,0.1159,0.1183,0.1245,0.1355,0.1264,0.1196,0.1143,0.1108,0.1039,0.1048,0.1058,0.1132,0.101,0.0945,0,0,0,0,0,0.0153,0.0202,0.0268,0.0352,0.0419,0.0472,0.0618,0.0745,0.0957,0.1017,0.1128,0.1151,0.113,0.1131,0.1061,0.1079,0.1048,0.098,0.096,0.1011,0.1022,0.1114,0,0,0,0,0,0,0.0175,0.0229,0.0257,0.0297,0.0368,0.0426,0.0526,0.0662,0.0731,0.0945,0.0949,0.1071,0.1054,0.1189,0.1049,0.1039,0.0992,0.1025,0.102,0.1004,0.1014,0.1023,0.1122,0,0,0,0,0]},{"header":{"parameterUnit":"m.s-1","parameterCategory":2,"la1":30.2991,"la2":30.254,"lo1":-89.0895,"lo2":-89.0444,"dy":0.0017,"dx":0.0017,"nx":28,"ny":28,"refTime":"2023-08-12T21:00:00:Z","depth":"4","parameterNumber":3,"parameterNumberName":"V-component_of_CURRENTS"},"data":[0,0,0,0,0,0,0,0,0,0,0,0,0,0,0,0,0,0,0,0,0,0,0,0,0,0,0,0,0,0,0,0,0,0,0,0,0,0,0,0,0,0,0,0,0,0,0,0,0,0,0,0,0,0,0,0,0,0,0.0123,0.0123,0,0.0136,0.0136,0.0136,0.0114,0.0113,0.0112,0.0112,0.0062,0.0062,0.0061,0,0,0,0,0,0,0,0,0,0,0,0,0,0.0085,0.0086,0.0123,0.0123,0.0123,0.0136,0.0136,0.0136,0.0114,0.0113,0.0112,0.0111,0.0062,0.0062,0.0061,0,0,0,0,0,0,0,0,0,0,0,0,0,0.0102,0.0086,0.0123,0.0112,0.0111,0.0136,0.0136,0.0136,0.0115,0.0113,0.0112,0.0111,0.0063,0.0062,0.0061,0.0083,0,0,0.0059,0.0059,0,0,0,0,0,0,0,0,0.0101,0.0103,0.0114,0.0113,0.0112,0.0121,0.0105,0.0115,0.0115,0.0115,0.0111,0.011,0.0076,0.0074,0.0082,0.0081,0.0079,0.0059,0.0058,0.0058,0.0058,0,0,0,0,0,0,0,0.01,0.0103,0.0129,0.0114,0.0113,0.0109,0.011,0.0107,0.0103,0.0115,0.0113,0.0112,0.0075,0.0083,0.0081,0.0078,0.0059,0.0058,0.0058,0.0057,0.0001,-0.0,0,0,0,0,0,0,0.0097,0.0102,0.0129,0.013,0.0101,0.0111,0.0112,0.012,0.0104,0.01,0.0114,0.0111,0.0085,0.0082,0.0079,0.0067,0.0058,0.0057,0.0057,0.0002,0.0001,-0.0,0,0,0,0,0,0,0.0096,0.0099,0.0128,0.0114,0.0117,0.0113,0.0123,0.0121,0.0133,0.0104,0.0099,0.0126,0.0084,0.008,0.0066,0.0066,0.0057,0.0056,0.0003,0.0002,0.0,0.0066,0,0,0,0,0,0,0.0095,0.0099,0.0109,0.0114,0.0118,0.0156,0.0124,0.0123,0.0134,0.0131,0.0113,0.0107,0.0083,0.0067,0.0065,0.0065,0.0056,0.0005,0.0002,0.0001,0.0065,0.0067,0.0068,0,0,0,0,0,0.0094,0.0117,0.011,0.0113,0.0131,0.0157,0.016,0.0151,0.0136,0.0155,0.0122,0.0107,0.0052,0.0067,0.0065,0.0064,0.0006,0.0003,0.0001,0.0065,0.0067,0.0068,0,0,0,0,0,0,0.0106,0.0117,0.0109,0.0134,0.0148,0.0153,0.0168,0.0162,0.0156,0.0148,0.0113,0.0105,0.0085,0.0064,0.0081,0.0034,0.0019,0.0016,0.0068,0.007,0.0072,0.0084,0.0055,0,0,0,0,0,0.0114,0.0135,0.0141,0.0164,0.017,0.0171,0.0181,0.018,0.0172,0.0169,0.0157,0.0119,0.0075,0.0066,0.0036,0.0033,-0.0007,0.002,0.0022,0.0024,0.0027,-0.0056,-0.0061,-0.0008,-0.0008,-0.0008,0,0,0.0121,0.0134,0.0142,0.0168,0.0175,0.0193,0.0175,0.02,0.0203,0.0164,0.0171,0.0134,0.0072,0.0052,0.0041,0.0038,-0.0008,0.0021,0.0023,0.0026,-0.0059,-0.0064,-0.0069,-0.001,-0.001,-0.0009,0,0,0.0157,0.0162,0.0191,0.021,0.023,0.0224,0.0233,0.0249,0.0242,0.025,0.0193,0.0156,0.0136,0.0076,0.0039,0.0032,-0.0,0.0023,0.0053,-0.0027,-0.0032,-0.0036,-0.0065,-0.0073,0.0029,0.003,0.003,0,0.0159,0.02,0.0205,0.0242,0.0247,0.0237,0.026,0.0259,0.0267,0.0245,0.0258,0.0163,0.0136,0.0048,0.0056,0.0038,0.0007,0.0059,-0.0023,-0.0028,-0.0034,-0.0063,-0.0073,0.0032,0.0032,0.0032,0.0032,0,0.0222,0.0249,0.0271,0.0299,0.0307,0.0333,0.032,0.0325,0.0314,0.0296,0.0238,0.0194,0.0139,0.0114,0.0099,0.0029,0.0027,-0.0011,-0.0018,-0.0035,-0.0065,-0.0076,0.0037,0.0036,0.0035,0.0034,0,0,0.0235,0.0296,0.0303,0.0319,0.0337,0.0349,0.0342,0.0317,0.0298,0.0289,0.0246,0.0184,0.0168,0.0125,0.0081,0.0022,-0.0015,0.0015,0.0009,0.0004,-0.0153,-0.0093,-0.0099,-0.0064,-0.0066,-0.0068,-0.0146,0,0.0275,0.0339,0.0353,0.0391,0.0414,0.0392,0.0387,0.036,0.0331,0.0298,0.021,0.0174,0.0165,0.0155,0.0092,0.0005,-0.0045,0.0012,-0.0152,-0.0156,-0.0088,-0.0111,-0.0075,-0.0154,-0.0157,-0.0158,-0.016,0,0.0332,0.0365,0.0415,0.0427,0.0432,0.0456,0.0416,0.0416,0.0344,0.0332,0.0265,0.0204,0.0127,0.0123,-0.0026,0.0017,-0.0045,-0.0118,-0.0124,-0.01,-0.0118,-0.0146,-0.018,-0.0179,-0.0177,-0.0176,-0.0174,0,0.0341,0.0397,0.0432,0.0448,0.047,0.0479,0.0479,0.0432,0.0433,0.0365,0.0348,0.0227,0.0201,0.007,-0.0022,-0.0026,-0.0192,-0.0231,-0.0252,-0.0247,-0.0304,-0.0299,-0.0353,-0.0353,-0.0353,-0.0353,-0.0352,0,0.0374,0.0401,0.0457,0.0483,0.0502,0.0525,0.0555,0.051,0.051,0.05,0.0392,0.0342,0.0191,0.0077,-0.0031,-0.0144,-0.0195,-0.0244,-0.0273,-0.0271,-0.0262,-0.031,-0.0304,-0.0355,-0.0355,-0.0354,-0.0354,0,0.0375,0.0423,0.0456,0.0499,0.0518,0.0537,0.0622,0.0658,0.0637,0.0617,0.0604,0.0456,0.0313,0.0147,-0.005,-0.012,-0.0268,-0.0301,-0.0241,-0.0266,-0.0269,-0.0259,-0.0349,-0.0348,-0.0347,-0.0346,-0.0345,0,0.0372,0.0408,0.0452,0.0497,0.0531,0.0609,0.0677,0.0714,0.0754,0.0672,0.0644,0.0506,0.0394,0.016,-0.001,-0.0219,-0.0249,-0.0298,-0.0324,-0.0254,-0.0274,-0.0266,-0.0257,-0.0344,-0.0343,-0.0343,-0.0343,0,0.0352,0.0379,0.0409,0.0475,0.0562,0.0651,0.0742,0.0793,0.0829,0.0812,0.0697,0.0544,0.038,0.0179,0.0048,-0.0121,-0.0259,-0.0289,-0.0293,-0.0318,-0.0249,-0.0267,-0.0261,-0.0339,-0.034,-0.034,-0.034,0,0.0323,0.0325,0.0371,0.0442,0.0566,0.0661,0.0711,0.0788,0.0826,0.0773,0.0742,0.0532,0.0445,0.0228,0.008,-0.0043,-0.0098,-0.0136,-0.0149,-0.0155,-0.0074,0.0044,0.0019,0,0,0,0,0,0.0285,0.03,0.0344,0.0428,0.0577,0.0634,0.0743,0.0809,0.087,0.0813,0.0793,0.0634,0.0402,0.0269,0.0154,0.0067,-0.0135,-0.0072,-0.0188,-0.0319,-0.0323,-0.0256,0,0,0,0,0,0,0.0259,0.0281,0.0305,0.0439,0.0543,0.0666,0.0756,0.0775,0.0755,0.0782,0.0654,0.063,0.0391,0.0479,0.0159,0.0116,0.0032,-0.0173,-0.0174,-0.0317,-0.032,-0.0324,-0.0256,0,0,0,0,0]}]]